Terminal Aerodrome Forecast
Issued by NWS Twin Cities, MN

Home | Current Version | Previous Version | Graphics & Text | Print | Product List | Glossary On
Versions: 1 2 3 4 5 6 7 8 9 10 11 12 13 14 15 16 17 18 19 20 21 22 23 24 25 26 27 28
821
FTUS43 KMPX 171737
TAFMSP
TAF
KMSP 171737Z 1718/1824 30006KT P6SM FEW025
     FM180000 30004KT P6SM FEW150
     FM180900 VRB03KT P6SM BKN110
     FM181600 13007KT P6SM VCSH OVC045
     FM182100 12008KT P6SM BKN030=

USA.gov is the U.S. government's official web portal to all federal, state and local government web resources and services.